Weather History for KOLU - July, 2014

Change the Weather History Date:

Monday, July 28, 2014

  Actual Average Record
Temperature  
Mean Temperature 60 °F -  
Max Temperature 75 °F 86 °F 100 °F (1986)
Min Temperature 44 °F 64 °F 44 °F (2014)
Degree Days  
Heating Degree Days 6    
Growing Degree Days 10 (Base 50)    
Moisture  
Dew Point 53 °F    
Average Humidity 74    
Maximum Humidity 100    
Minimum Humidity 47    
Precipitation  
Precipitation 0.00 in - - ()
Sea Level Pressure  
Sea Level Pressure 30.26 in    
Wind  
Wind Speed 7 mph (NNW)    
Max Wind Speed 13 mph    
Max Gust Speed 17 mph    
Visibility 10 miles    
Events      
Averages and records for this station are not official NWS values.
T = Trace of Precipitation, MM = Missing Value Source: NWS Daily Summary

Daily Weather History Graph

Daily Weather History Graph

Search for Another Location

Airport or City:

Trip Planner

Search our weather history database for the weather conditions in past years. The results will help you decide how hot, cold, wet, or windy it might be!

Date:

Astronomy

Jul. 28, 2014 Rise Set
Actual Time 6:20 AM CDT 8:50 PM CDT
Civil Twilight 5:48 AM CDT 9:22 PM CDT
Nautical Twilight 5:09 AM CDT 10:01 PM CDT
Astronomical Twilight 4:25 AM CDT 10:45 PM CDT
Moon 8:04 AM CDT (7/28) 9:30 PM CDT (7/28)
Length of Visible Light 15h 33m
Length of Day
14h 30m
Waxing Crescent, 3% of the Moon is Illuminated
Jul 28
Waxing Crescent
Aug 3
First Quarter
Aug 10
Full
Aug 17
Last Quarter
Aug 25
New

Hourly Weather History & Observations

Time (CDT) Temp. Windchill Dew Point Humidity Pressure Visibility Wind Dir Wind Speed Gust Speed Precip Events Conditions
12:15 AM 60.8 °F - 55.4 °F 82% 30.24 in 10.0 mi North 6.9 mph - N/A   Clear
12:35 AM 60.8 °F - 53.6 °F 77% 30.25 in 10.0 mi North 6.9 mph - N/A   Clear
12:55 AM 60.8 °F - 53.6 °F 77% 30.25 in 10.0 mi North 6.9 mph - N/A   Clear
1:15 AM 59.0 °F - 53.6 °F 82% 30.25 in 10.0 mi North 5.8 mph - N/A   Clear
1:35 AM 57.2 °F - 51.8 °F 82% 30.24 in 10.0 mi North 5.8 mph - N/A   Clear
1:55 AM 57.2 °F - 53.6 °F 88% 30.24 in 10.0 mi North 5.8 mph - N/A   Clear
2:15 AM 57.2 °F - 53.6 °F 88% 30.24 in 10.0 mi North 6.9 mph - N/A   Clear
2:35 AM 57.2 °F - 51.8 °F 82% 30.24 in 10.0 mi North 5.8 mph - N/A   Clear
3:15 AM 57.2 °F - 51.8 °F 82% 30.24 in 10.0 mi North 8.1 mph - N/A   Clear
3:35 AM 57.2 °F - 51.8 °F 82% 30.24 in 10.0 mi North 5.8 mph - N/A   Clear
3:55 AM 57.2 °F - 51.8 °F 82% 30.25 in 10.0 mi North 3.5 mph - N/A   Clear
4:15 AM 57.2 °F - 51.8 °F 82% 30.26 in 10.0 mi NW 3.5 mph - N/A   Clear
4:35 AM 55.4 °F - 50.0 °F 82% 30.26 in 10.0 mi NW 5.8 mph - N/A   Clear
4:55 AM 57.2 °F - 51.8 °F 82% 30.26 in 10.0 mi WNW 6.9 mph - N/A   Clear
5:15 AM 55.4 °F - 50.0 °F 82% 30.25 in 10.0 mi WNW 5.8 mph - N/A   Clear
5:35 AM 55.4 °F - 50.0 °F 82% 30.26 in 10.0 mi West 4.6 mph - N/A   Clear
5:55 AM 55.4 °F - 50.0 °F 82% 30.26 in 10.0 mi NW 4.6 mph - N/A   Clear
6:15 AM 55.4 °F - 50.0 °F 82% 30.28 in 10.0 mi West 5.8 mph - N/A   Clear
6:35 AM 55.4 °F - 50.0 °F 82% 30.28 in 10.0 mi WNW 5.8 mph - N/A   Clear
6:55 AM 55.4 °F - 50.0 °F 82% 30.28 in 10.0 mi NW 6.9 mph - N/A   Clear
7:15 AM 55.4 °F - 51.8 °F 88% 30.30 in 10.0 mi West 5.8 mph - N/A   Clear
7:35 AM 57.2 °F - 51.8 °F 82% 30.30 in 10.0 mi NW 6.9 mph - N/A   Clear
7:55 AM 59.0 °F - 53.6 °F 82% 30.30 in 10.0 mi NNW 6.9 mph - N/A   Clear
8:15 AM 60.8 °F - 53.6 °F 77% 30.30 in 10.0 mi NW 8.1 mph - N/A   Clear
8:35 AM 62.6 °F - 55.4 °F 77% 30.30 in 10.0 mi North 6.9 mph - N/A   Clear
8:55 AM 62.6 °F - 55.4 °F 77% 30.31 in 10.0 mi NNW 8.1 mph - N/A   Clear
9:15 AM 64.4 °F - 55.4 °F 73% 30.30 in 10.0 mi NNW 8.1 mph - N/A   Clear
9:35 AM 59.0 °F - 55.4 °F 88% 30.31 in 10.0 mi NW 10.4 mph - N/A   Clear
9:55 AM 62.6 °F - 55.4 °F 77% 30.31 in 10.0 mi NNW 12.7 mph - N/A   Clear
10:15 AM 46.4 °F 40.7 °F - N/A% 30.31 in 10.0 mi NNW 12.7 mph 16.1 mph N/A   Partly Cloudy
10:35 AM 44.6 °F 39.7 °F - N/A% 30.31 in 10.0 mi North 9.2 mph - N/A   Mostly Cloudy
10:55 AM 46.4 °F 41.1 °F - N/A% 30.31 in 10.0 mi NNW 11.5 mph - N/A   Mostly Cloudy
11:15 AM 48.2 °F - - N/A% 30.32 in 10.0 mi North 9.2 mph 16.1 mph N/A   Mostly Cloudy
11:35 AM 48.2 °F - - N/A% 30.31 in 10.0 mi NNW 10.4 mph - N/A   Scattered Clouds
11:55 AM 48.2 °F - - N/A% 30.31 in 10.0 mi North 8.1 mph - N/A   Mostly Cloudy
12:15 PM 48.2 °F - - N/A% 30.31 in 10.0 mi NW 12.7 mph - N/A   Mostly Cloudy
12:35 PM 51.8 °F - 51.8 °F 100% 30.31 in 10.0 mi North 9.2 mph 17.3 mph N/A   Scattered Clouds
12:55 PM 51.8 °F - 51.8 °F 100% 30.30 in 10.0 mi NW 10.4 mph - N/A   Scattered Clouds
1:15 PM 53.6 °F - 53.6 °F 100% 30.30 in 10.0 mi NNW 11.5 mph - N/A   Mostly Cloudy
1:35 PM 68.0 °F - 53.6 °F 60% 30.29 in 10.0 mi NNW 11.5 mph - N/A   Partly Cloudy
1:55 PM 73.4 °F - 53.6 °F 50% 30.28 in 10.0 mi North 10.4 mph 16.1 mph N/A   Mostly Cloudy
2:15 PM 73.4 °F - 53.6 °F 50% 30.28 in 10.0 mi NNW 8.1 mph 17.3 mph N/A   Mostly Cloudy
2:35 PM 75.2 °F - 55.4 °F 50% 30.28 in 10.0 mi North 8.1 mph - N/A   Mostly Cloudy
3:15 PM 75.2 °F - 53.6 °F 47% 30.27 in 10.0 mi NNW 9.2 mph - N/A   Mostly Cloudy
3:35 PM 73.4 °F - 53.6 °F 50% 30.27 in 10.0 mi North 9.2 mph - N/A   Overcast
3:55 PM 73.4 °F - 53.6 °F 50% 30.26 in 10.0 mi NNW 8.1 mph - N/A   Mostly Cloudy
4:15 PM 75.2 °F - 55.4 °F 50% 30.26 in 10.0 mi NNW 11.5 mph - N/A   Mostly Cloudy
4:35 PM 75.2 °F - 53.6 °F 47% 30.26 in 10.0 mi North 9.2 mph - N/A   Mostly Cloudy
4:55 PM 75.2 °F - 53.6 °F 47% 30.25 in 10.0 mi North 9.2 mph - N/A   Partly Cloudy
5:15 PM 75.2 °F - 53.6 °F 47% 30.25 in 10.0 mi NNW 11.5 mph - N/A   Clear
5:35 PM 75.2 °F - 53.6 °F 47% 30.24 in 10.0 mi NNW 10.4 mph - N/A   Clear
5:55 PM 75.2 °F - 53.6 °F 47% 30.24 in 10.0 mi NNW 9.2 mph - N/A   Partly Cloudy
6:15 PM 73.4 °F - 53.6 °F 50% 30.23 in 10.0 mi NW 8.1 mph - N/A   Clear
6:35 PM 66.2 °F - 53.6 °F 64% 30.23 in 10.0 mi North 8.1 mph - N/A   Clear
6:55 PM 73.4 °F - 53.6 °F 50% 30.22 in 10.0 mi NNW 11.5 mph - N/A   Clear
7:15 PM 53.6 °F - 53.6 °F 100% 30.22 in 10.0 mi North 5.8 mph - N/A   Clear
7:35 PM 51.8 °F - 51.8 °F 100% 30.22 in 10.0 mi North 5.8 mph - N/A   Clear
7:55 PM 51.8 °F - 51.8 °F 100% 30.22 in 10.0 mi North 5.8 mph - N/A   Clear
8:15 PM 48.2 °F - - N/A% 30.21 in 10.0 mi North 4.6 mph - N/A   Clear
8:35 PM 66.2 °F - 55.4 °F 68% 30.21 in 10.0 mi Calm Calm - N/A   Clear
8:55 PM 66.2 °F - 53.6 °F 64% 30.21 in 10.0 mi Calm Calm - N/A   Clear
9:15 PM 64.4 °F - 53.6 °F 68% 30.21 in 10.0 mi Calm Calm - N/A   Clear
9:55 PM 62.6 °F - 51.8 °F 68% 30.22 in 10.0 mi Calm Calm - N/A   Clear
10:15 PM 60.8 °F - 53.6 °F 77% 30.22 in 10.0 mi Calm Calm - N/A   Clear
10:35 PM 60.8 °F - 53.6 °F 77% 30.22 in 10.0 mi Calm Calm - N/A   Clear
10:55 PM 60.8 °F - 51.8 °F 72% 30.21 in 10.0 mi NNE 4.6 mph - N/A   Clear
11:15 PM 59.0 °F - 51.8 °F 77% 30.22 in 10.0 mi NNE 3.5 mph - N/A   Clear
11:35 PM 57.2 °F - 51.8 °F 82% 30.22 in 10.0 mi NNE 4.6 mph - N/A   Clear
11:55 PM 57.2 °F - 50.0 °F 77% 30.22 in 10.0 mi NE 3.5 mph - N/A   Clear